Location: Unspecified
(0.0000°N, 0.0000°E)
Time: 18:26:47
(UTC+00:00)

STARLINK 1035 - Pass Details

Date: 17 January 2020
Orbit: 397 x 400 km, 53.0° (Epoch: 17 January)

Event Time Altitude Azimuth Distance (km) Brightness Sun altitude
Rises 04:42:45 0° 185° (S) 2,299 7.0 -20.3°
Reaches altitude 10° 04:45:34 10° 158° (SSE) 1,438 6.3 -19.6°
Maximum altitude 04:47:20 14° 125° (SE) 1,228 6.5 -19.2°
Drops below altitude 10° 04:49:04 10° 92° (E) 1,434 6.8 -18.8°
Sets 04:51:52 0° 64° (ENE) 2,287 7.4 -18.2°
